Regional Weather Roundup
Issued by NWS

Home | Current Version | Previous Version | Graphics & Text | Print | Product List | Glossary On
Versions: 1 2 3 4 5 6 7 8 9 10 11 12 13 14 15 16 17 18 19 20 21 22 23 24 25 26 27 28 29 30 31 32 33 34 35 36 37 38 39 40 41 42 43 44 45 46 47 48 49 50
125
ASUS45 KPSR 130910
RWRAZ

ARIZONA HOURLY REGIONAL WEATHER ROUNDUP
NATIONAL WEATHER SERVICE PHOENIX AZ
200 AM MST SAT FEB 13 2016

NOTE: FAIR INDICATES FEW OR NO CLOUDS BELOW 12,000 FEET WITH NO
SIGNIFICANT WEATHER AND/OR OBSTRUCTIONS TO VISIBILITY.

AZZ001>003-036-131000-
NORTHWEST ARIZONA

CITY           SKY/WX    TMP DP  RH WIND       PRES   REMARKS
BULLHEAD CITY  CLEAR     59  28  31 N6        30.10F
KINGMAN        CLEAR     47  21  35 CALM      30.19S
$$

AZZ004>008-015-016-018-131000-
NORTH CENTRAL ARIZONA

CITY           SKY/WX    TMP DP  RH WIND       PRES   REMARKS
GRAND CANYON   PTCLDY    26  21  81 CALM      30.33S
WILLIAMS       PTCLDY    32  19  59 S13       30.37F WCI  22
PRESCOTT       PTCLDY    41  23  48 S6        30.26S
FLAGSTAFF      PTCLDY    25  18  74 CALM      30.34F
PAYSON         CLEAR     45  19  36 CALM      30.28R
PAGE           PTCLDY    38  30  73 CALM      30.27F
$$

AZZ009>014-017-131000-
NORTHEAST ARIZONA

CITY           SKY/WX    TMP DP  RH WIND       PRES   REMARKS
WINSLOW        MOCLDY    30  20  66 E3        30.29S
SAINT JOHNS    CLEAR     30  15  53 S5        30.30S WCI  25
WINDOW ROCK    CLEAR     27   0  31 CALM      30.35F
SHOW LOW       PTCLDY    32  19  59 CALM      30.33S
$$

AZZ023-131000-
GREATER PHOENIX AREA

CITY           SKY/WX    TMP DP  RH WIND       PRES   REMARKS
PHOENIX        CLEAR     61  35  37 E5        30.06R
BUCKEYE        CLEAR     52  28  40 NW5       30.09S
LUKE AFB       CLEAR     55  34  45 N6        30.05S
DEER VALLEY    CLEAR     59  28  30 NW5       30.07R
SCOTTSDALE     CLEAR     55  36  48 CALM      30.08S
MESA-GATEWAY   CLEAR     50  32  50 E9        30.09R
$$

AZZ027-028-131000-
SOUTHWEST MARICOPA COUNTY AND PINAL COUNTY

CITY           SKY/WX    TMP DP  RH WIND       PRES   REMARKS
CASA GRANDE    CLEAR     54  27  35 CALM      30.09S
GILA BEND      FAIR      54  26  33 SE9       30.05S
$$

AZZ503-504-507>509-131000-
SOUTHEAST ARIZONA

CITY           SKY/WX    TMP DP  RH WIND       PRES   REMARKS
TUCSON         PTCLDY    51  24  34 SE8       30.15S
DAVIS-MONTHAN  CLEAR     51  21  31 S6        30.13S
NOGALES        PTCLDY    46  18  32 S3        30.19S
SIERRA VISTA   MOCLDY    50  16  26 SW2       30.24S
DOUGLAS        PTCLDY    41  10  28 SE3       30.22R
SAFFORD        PTCLDY    46  20  35 NW5       30.18R
$$

AZZ020-021-025-026-031-131000-
SOUTHWEST ARIZONA

CITY           SKY/WX    TMP DP  RH WIND       PRES   REMARKS
YUMA           CLEAR     58  33  39 CALM      30.04S
$$

CAZ031-033-041-043-047-048-061-131000-
SOUTHERN CALIFORNIA

CITY           SKY/WX    TMP DP  RH WIND       PRES   REMARKS
DOWNTOWN L.A.  CLEAR     57  53  86 CALM      30.08S
L.A. AIRPORT   PTCLDY    57  54  89 CALM      30.08F
SAN DIEGO      PTCLDY    55  54  94 CALM      30.10F FOG
BURBANK        CLEAR     59  35  40 CALM      30.08F
ONTARIO        CLEAR     58  39  49 CALM      30.10S
RIVERSIDE      CLEAR     58  39  49 CALM      30.10S
PALM SPRINGS   CLEAR     61  25  25 N10       30.08S
EL CENTRO NAS  CLEAR     54  22  28 W9        30.05S
IMPERIAL       CLEAR     51  29  42 W7        30.03S
BLYTHE         CLEAR     55  23  28 NW6       30.06S
NEEDLES        CLEAR     54  26  34 W6        30.09S
$$

NVZ020-UTZ003-131000-
SOUTHERN NEVADA-UTAH

CITY           SKY/WX    TMP DP  RH WIND       PRES   REMARKS
LAS VEGAS      PTCLDY    53  23  31 SW3       30.12S
SALT LAKE CITY CLOUDY    28  27  96 W3        30.31F FOG
$$

NMZ009-TXZ055-131000-
NEW MEXICO-WEST TEXAS

CITY           SKY/WX    TMP DP  RH WIND       PRES   REMARKS
ALBUQUERQUE    CLOUDY    42  20  41 CALM      30.31F
EL PASO        PTCLDY    43  14  31 CALM      30.24F
$$


........................KEY........................
SKY/WX - SKY CONDITION/WEATHER
TMP    - TEMPERATURE IN FAHRENHEIT
DP     - DEW POINT IN FAHRENHEIT
RH     - RELATIVE HUMIDITY IN PERCENT
WIND   - DIRECTION AND SPEED IN MILES PER HOUR (MPH)
VRB    - VARIABLE WIND DIRECTION
PRES   - MEAN SEA LEVEL PRESSURE IN INCHES OF MERCURY
         F - FALLING PRESSURE   R - RISING PRESSURE
         S - STEADY PRESSURE
VSB    - VISIBILITY IN MILES
HX     - HEAT INDEX IN FAHRENHEIT
WCI    - WIND CHILL INDEX IN FAHRENHEIT
TC     - TEMPERATURE IN CELSIUS WHICH IS ALSO KNOWN AS
         TEMPERATURE IN CENTIGRADE
AFB    - AIR FORCE BASE
         LUKE AFB IS LUKE AIR FORCE BASE
         DAVIS-MONTHAN IS DAVIS-MONTHAN AIR FORCE BASE
NAS    - NAVAL AIR STATION
         EL CENTRO NAS IS EL CENTRO NAVAL AIR STATION
N/A    - NOT AVAILABLE





USA.gov is the U.S. government's official web portal to all federal, state and local government web resources and services.